TimeMST,TemperatureF,Dew PointF,Humidity,Sea Level PressureIn,VisibilityMPH,Wind Direction,Wind SpeedMPH,Gust SpeedMPH,PrecipitationIn,Events,Conditions,WindDirDegrees,DateUTC
12:51 AM,64.9,45.0,48,29.81,10.0,Calm,Calm,-,N/A,,Scattered Clouds,0,2013-11-20 07:51:00
1:51 AM,64.0,46.0,52,29.81,10.0,ESE,3.5,-,N/A,,Mostly Cloudy,110,2013-11-20 08:51:00
2:51 AM,62.1,46.0,56,29.81,10.0,East,3.5,-,N/A,,Overcast,100,2013-11-20 09:51:00
3:51 AM,63.0,46.0,54,29.81,10.0,East,4.6,-,N/A,,Overcast,100,2013-11-20 10:51:00
4:51 AM,62.1,46.9,58,29.81,10.0,East,3.5,-,N/A,,Overcast,80,2013-11-20 11:51:00
5:51 AM,62.1,46.9,58,29.80,10.0,East,5.8,-,N/A,,Overcast,90,2013-11-20 12:51:00
6:51 AM,62.1,46.0,56,29.81,10.0,East,5.8,-,N/A,,Overcast,80,2013-11-20 13:51:00
7:51 AM,63.0,44.1,50,29.82,10.0,ESE,5.8,-,N/A,,Mostly Cloudy,120,2013-11-20 14:51:00
8:51 AM,64.9,44.1,47,29.83,10.0,ESE,4.6,-,N/A,,Mostly Cloudy,120,2013-11-20 15:51:00
9:51 AM,66.0,45.0,47,29.84,10.0,SW,3.5,-,N/A,,Mostly Cloudy,220,2013-11-20 16:51:00
10:51 AM,71.1,45.0,39,29.83,10.0,SW,8.1,-,N/A,,Mostly Cloudy,230,2013-11-20 17:51:00
11:51 AM,71.1,45.0,39,29.82,10.0,West,3.5,-,N/A,,Mostly Cloudy,280,2013-11-20 18:51:00
12:51 PM,72.0,44.1,37,29.79,10.0,WNW,6.9,-,N/A,,Mostly Cloudy,300,2013-11-20 19:51:00
1:51 PM,73.0,44.1,35,29.76,10.0,WNW,3.5,-,N/A,,Mostly Cloudy,300,2013-11-20 20:51:00
2:51 PM,73.9,44.1,34,29.75,10.0,WSW,8.1,-,N/A,,Mostly Cloudy,250,2013-11-20 21:51:00
3:51 PM,73.9,44.1,34,29.76,10.0,WNW,6.9,-,N/A,,Mostly Cloudy,290,2013-11-20 22:51:00
4:51 PM,73.0,44.1,35,29.77,10.0,Calm,Calm,-,N/A,,Mostly Cloudy,0,2013-11-20 23:51:00
5:51 PM,72.0,41.0,33,29.78,10.0,West,9.2,-,N/A,,Scattered Clouds,260,2013-11-21 00:51:00
6:51 PM,70.0,42.1,36,29.78,10.0,WSW,3.5,-,N/A,,Scattered Clouds,240,2013-11-21 01:51:00
7:51 PM,68.0,42.1,39,29.80,10.0,WSW,3.5,-,N/A,,Scattered Clouds,250,2013-11-21 02:51:00
8:51 PM,69.1,41.0,36,29.81,10.0,WNW,3.5,-,N/A,,Partly Cloudy,300,2013-11-21 03:51:00
9:51 PM,66.0,42.1,42,29.82,10.0,Calm,Calm,-,N/A,,Scattered Clouds,0,2013-11-21 04:51:00
10:51 PM,64.9,42.1,43,29.81,10.0,Calm,Calm,-,N/A,,Partly Cloudy,0,2013-11-21 05:51:00
11:51 PM,63.0,44.1,50,29.82,10.0,ESE,4.6,-,N/A,,Partly Cloudy,110,2013-11-21 06:51:00